Location: Aigremont
(47.7188°N, 3.8925°E)
Time: 11:12:37
(UTC+00:00)

Cosmos 1000 Rocket - Pass Details

Date: 18 February 2020
Orbit: 954 x 992 km, 82.9° (Epoch: 08 April)

Event Time Altitude Azimuth Distance (km) Brightness Sun altitude
Rises 05:30:00 0° 194° (SSW) 3,625 7.4 -13.5°
Reaches altitude 10° 05:32:29 10° 196° (SSW) 2,687 6.7 -13.0°
Maximum altitude 05:38:37 71° 280° (W) 1,020 4.4 -12.0°
Drops below altitude 10° 05:44:52 10° 5° (N) 2,730 6.9 -11.0°
Sets 05:47:25 0° 8° (N) 3,687 7.6 -10.5°
